This is the latest recevied weather packets stored in our database for station/object EA7HQL-10. If no packets are shown the sender has not sent any weather packets the latest 1 day(s).
| Time | Temp. | Humidity | Pressure | Rain* | Wind** | Luminosity | Snow |
|---|---|---|---|---|---|---|---|
| 1778039715 | 18.33° C | 50% | 1008.1 hPa | 0 mm | 2.24 m/s, 24° | - | - |
| 1778039455 | 18.33° C | 50% | 1008 hPa | 0 mm | 1.79 m/s, 224° | - | - |
| 1778039200 | 18.33° C | 51% | 1008.2 hPa | 0 mm | 1.79 m/s, 335° | - | - |
| 1778038905 | 18.33° C | 51% | 1008 hPa | 0 mm | 3.58 m/s, 249° | - | - |
| 1778038650 | 18.33° C | 49% | 1008.2 hPa | 0 mm | 2.24 m/s, 204° | - | - |
| 1778038405 | 18.33° C | 50% | 1008.2 hPa | 0 mm | 1.79 m/s, 288° | - | - |
| 1778038130 | 18.33° C | 50% | 1008.1 hPa | 0 mm | 2.68 m/s, 232° | - | - |
| 1778037880 | 18.33° C | 50% | 1008.5 hPa | 0 mm | 4.47 m/s, 198° | - | - |
| 1778037605 | 18.33° C | 51% | 1008.2 hPa | 0 mm | 3.13 m/s, 299° | - | - |
| 1778037355 | 18.33° C | 50% | 1008.1 hPa | 0 mm | 4.02 m/s, 292° | - | - |
| 1778037090 | 18.33° C | 50% | 1008.1 hPa | 0 mm | 4.02 m/s, 304° | - | - |
| 1778036833 | 18.33° C | 51% | 1008.3 hPa | 0 mm | 2.68 m/s, 324° | - | - |
| 1778036565 | 18.33° C | 51% | 1008.3 hPa | 0 mm | 1.79 m/s, 283° | - | - |
| 1778036270 | 18.33° C | 51% | 1008.3 hPa | 0 mm | 3.58 m/s, 269° | - | - |
| 1778036010 | 18.33° C | 52% | 1008.3 hPa | 0 mm | 2.68 m/s, 295° | - | - |
| 1778035760 | 18.33° C | 51% | 1008.3 hPa | 0 mm | 4.02 m/s, 304° | - | - |
| 1778035495 | 18.33° C | 51% | 1008.2 hPa | 0 mm | 2.24 m/s, 309° | - | - |
| 1778035220 | 18.33° C | 51% | 1008.3 hPa | 0 mm | 4.47 m/s, 316° | - | - |
| 1778034930 | 18.33° C | 52% | 1008.5 hPa | 0 mm | 2.68 m/s, 326° | - | - |
| 1778034645 | 18.33° C | 52% | 1008.5 hPa | 0 mm | 4.02 m/s, 294° | - | - |
| 1778034405 | 18.33° C | 52% | 1008.6 hPa | 0 mm | 3.58 m/s, 318° | - | - |
| 1778034110 | 18.33° C | 52% | 1008.6 hPa | 0 mm | 4.47 m/s, 270° | - | - |
| 1778033860 | 18.33° C | 52% | 1008.5 hPa | 0 mm | 4.47 m/s, 351° | - | - |
| 1778033600 | 18.33° C | 52% | 1008.5 hPa | 0 mm | 1.79 m/s, 0° | - | - |
| 1778033350 | 18.33° C | 52% | 1008.7 hPa | 0 mm | 3.58 m/s, 323° | - | - |
* Rain latest hour (hover to see other rain measurements)
** Current wind speed in m/s (hover to see current wind gust speed)